Starlink 35269

operational
NORAD ID: 65593 Int'l Des: 2025-207 Owner: SPXS Country: US Constellation: starlink
NOTLE

About Starlink 35269

Description loading...

Live Position

Loading 3D Globe...

Upcoming Passes

Altitude History

Altitude vs Time

uPlot chart will show altitude changes over time

Two-Line Element Set

1 65593U 25207B 25308.61442204 .00046186 00000-0 11781-2 0 9990
2 65593 97.6049 12.9299 0001615 75.6764 284.4661 15.39373054 9274
Epoch: Nov 4, 2025 • Age: 11 hours

Current Status

Altitude 456.2 km
Velocity 7.64 km/s
Sub-Earth Point 56.18°N, 71.26°W
Launch Date Sep 13, 2025
Age 0.1 years
Type internet

Technical Details

Classification Payload
Mass 575.00 kg
Dry Mass 530.00 kg
Total Mass 575.00 kg
Length 0.30 m
Diameter 4.10 m
Span 29.00 m
Shape Box + pan
Manufacturer SPXS
Bus Type Starlink V2MO
Phase Status In Orbit
Owner/State SPXS/US

Large Constellations

Loading constellations...